• En España
  • Lista de países
  • Para 7 días
  • Temperatura del agua
  • Mapa Satelital
  • El tiempo en el mapa
  • Informadores
  • user-avatar
    Iniciar sesión

    Tiempo cada hora Albany

    Hoy, 22 Julio, Domingo

    Tiempo Temperatura Precipitaciones Viento Presión Humedad
    00:00 +12°C° 0,2 mm 9 mps 746 mmHg 80%
    01:00 +12°C° 0,2 mm 9 mps 745 mmHg 80%
    02:00 +12°C° 0 mm 9 mps 745 mmHg 81%
    03:00 +12°C° 0,3 mm 9 mps 745 mmHg 82%
    04:00 +12°C° 0,3 mm 9 mps 745 mmHg 83%
    05:00 +12°C° 0,3 mm 9 mps 745 mmHg 84%
    06:00 +11°C° 0,3 mm 8 mps 745 mmHg 84%
    07:00 +11°C° 0,3 mm 8 mps 745 mmHg 84%
    08:00 +11°C° 0,3 mm 8 mps 745 mmHg 84%
    09:00 +11°C° 0,6 mm 8 mps 745 mmHg 81%
    10:00 +12°C° 0,6 mm 9 mps 745 mmHg 77%
    11:00 +12°C° 0,6 mm 10 mps 745 mmHg 73%
    12:00 +13°C° 0,4 mm 10 mps 745 mmHg 68%
    13:00 +13°C° 0,4 mm 10 mps 745 mmHg 63%
    14:00 +14°C° 0,4 mm 10 mps 744 mmHg 58%
    15:00 +13°C° 0,1 mm 10 mps 744 mmHg 61%
    16:00 +12°C° 0,1 mm 10 mps 743 mmHg 63%
    17:00 +12°C° 0,1 mm 10 mps 743 mmHg 65%
    18:00 +11°C° 0,7 mm 11 mps 743 mmHg 71%
    19:00 +10°C° 0,7 mm 12 mps 743 mmHg 76%
    20:00 +9°C° 0,7 mm 13 mps 743 mmHg 82%
    21:00 +9°C° 0,9 mm 13 mps 743 mmHg 81%
    22:00 +9°C° 0,9 mm 14 mps 744 mmHg 80%
    23:00 +8°C° 0,9 mm 14 mps 745 mmHg 79%

    Mañana, 23 Julio, Lunes

    Tiempo Temperatura Precipitaciones Viento Presión Humedad
    00:00 +9°C° 0,2 mm 14 mps 745 mmHg 76%
    01:00 +9°C° 0,2 mm 13 mps 746 mmHg 72%
    02:00 +9°C° 0,2 mm 12 mps 747 mmHg 68%
    03:00 +9°C° 0,1 mm 12 mps 748 mmHg 69%
    04:00 +9°C° 0,1 mm 11 mps 748 mmHg 69%
    05:00 +9°C° 0,1 mm 11 mps 749 mmHg 70%
    06:00 +9°C° 0,1 mm 10 mps 750 mmHg 71%
    07:00 +9°C° 0,1 mm 10 mps 750 mmHg 72%
    08:00 +10°C° 0,1 mm 9 mps 751 mmHg 73%
    09:00 +11°C° 0,1 mm 10 mps 751 mmHg 70%
    10:00 +12°C° 0,1 mm 10 mps 752 mmHg 68%
    11:00 +13°C° 0,1 mm 10 mps 752 mmHg 65%
    12:00 +13°C° 0,1 mm 10 mps 752 mmHg 65%
    13:00 +14°C° 0,1 mm 10 mps 752 mmHg 66%
    14:00 +14°C° 0,1 mm 10 mps 752 mmHg 66%
    15:00 +13°C° 0,1 mm 10 mps 752 mmHg 67%
    16:00 +13°C° 0,1 mm 9 mps 753 mmHg 68%
    17:00 +13°C° 0,1 mm 9 mps 753 mmHg 70%
    18:00 +12°C° 0,1 mm 9 mps 753 mmHg 73%
    19:00 +12°C° 0,1 mm 8 mps 754 mmHg 76%
    20:00 +11°C° 0,1 mm 8 mps 754 mmHg 79%
    21:00 +11°C° 0,1 mm 8 mps 755 mmHg 81%
    22:00 +11°C° 0,1 mm 7 mps 755 mmHg 83%
    23:00 +11°C° 0,1 mm 7 mps 755 mmHg 84%

    Pasado mañana, 24 Julio, Martes

    Tiempo Temperatura Precipitaciones Viento Presión Humedad
    00:00 +10°C° 0,2 mm 7 mps 755 mmHg 85%
    01:00 +10°C° 0,2 mm 7 mps 755 mmHg 86%
    02:00 +10°C° 0,2 mm 6 mps 755 mmHg 87%
    03:00 +10°C° 0,3 mm 6 mps 755 mmHg 87%
    04:00 +10°C° 0,3 mm 6 mps 755 mmHg 87%
    05:00 +10°C° 0,3 mm 6 mps 755 mmHg 87%
    06:00 +10°C° 0,3 mm 5 mps 756 mmHg 88%
    07:00 +10°C° 0,3 mm 5 mps 756 mmHg 88%
    08:00 +10°C° 0,3 mm 5 mps 756 mmHg 89%
    09:00 +12°C° 0,2 mm 5 mps 757 mmHg 86%
    10:00 +13°C° 0,2 mm 5 mps 757 mmHg 84%
    11:00 +14°C° 0,2 mm 4 mps 757 mmHg 81%
    12:00 +15°C° 0,1 mm 4 mps 757 mmHg 77%
    13:00 +15°C° 0,1 mm 4 mps 756 mmHg 73%
    14:00 +17°C° 0,1 mm 4 mps 756 mmHg 69%
    15:00 +16°C° 0 mm 3 mps 756 mmHg 72%
    16:00 +16°C° 0 mm 3 mps 756 mmHg 75%
    17:00 +14°C° 0 mm 3 mps 756 mmHg 78%
    18:00 +13°C° 0 mm 3 mps 756 mmHg 80%
    19:00 +13°C° 0 mm 3 mps 756 mmHg 83%
    20:00 +12°C° 0 mm 3 mps 756 mmHg 85%
    21:00 +12°C° 0 mm 3 mps 756 mmHg 86%
    22:00 +11°C° 0 mm 4 mps 756 mmHg 87%
    23:00 +11°C° 0 mm 4 mps 755 mmHg 88%

    25 Julio, Miércoles

    Tiempo Temperatura Precipitaciones Viento Presión Humedad
    00:00 +10°C° 0 mm 5 mps 754 mmHg 87%
    01:00 +10°C° 0 mm 5 mps 754 mmHg 86%
    02:00 +10°C° 0 mm 6 mps 753 mmHg 85%
    03:00 +11°C° 0 mm 6 mps 752 mmHg 85%
    04:00 +11°C° 0 mm 6 mps 751 mmHg 85%
    05:00 +11°C° 0 mm 7 mps 751 mmHg 85%
    06:00 +11°C° 0,1 mm 7 mps 750 mmHg 85%
    07:00 +11°C° 0,1 mm 7 mps 750 mmHg 85%
    08:00 +12°C° 0,1 mm 8 mps 749 mmHg 85%
    09:00 +13°C° 0 mm 8 mps 748 mmHg 81%
    10:00 +15°C° 0 mm 9 mps 747 mmHg 76%
    11:00 +16°C° 0 mm 9 mps 746 mmHg 72%
    12:00 +14°C° 1,5 mm 10 mps 745 mmHg 77%
    13:00 +13°C° 1,5 mm 10 mps 744 mmHg 82%
    14:00 +12°C° 1,5 mm 11 mps 743 mmHg 87%
    15:00 +11°C° 0,6 mm 11 mps 743 mmHg 85%
    16:00 +9°C° 0,6 mm 10 mps 743 mmHg 83%
    17:00 +8°C° 0,6 mm 10 mps 743 mmHg 81%
    18:00 +9°C° 1,2 mm 11 mps 743 mmHg 84%
    19:00 +9°C° 1,2 mm 11 mps 743 mmHg 86%
    20:00 +9°C° 1,2 mm 11 mps 743 mmHg 88%
    21:00 +11°C° 0,7 mm 11 mps 744 mmHg 85%
    22:00 +12°C° 0,7 mm 10 mps 745 mmHg 81%
    23:00 +13°C° 0,7 mm 10 mps 746 mmHg 78%

    26 Julio, Jueves

    Tiempo Temperatura Precipitaciones Viento Presión Humedad
    00:00 +13°C° 0,3 mm 10 mps 748 mmHg 81%
    01:00 +13°C° 0,3 mm 10 mps 749 mmHg 84%
    02:00 +13°C° 0,3 mm 9 mps 751 mmHg 87%
    03:00 +12°C° 0,3 mm 9 mps 752 mmHg 87%
    04:00 +12°C° 0,3 mm 10 mps 753 mmHg 87%
    05:00 +12°C° 0,3 mm 10 mps 754 mmHg 88%
    06:00 +12°C° 0,1 mm 9 mps 755 mmHg 87%
    07:00 +11°C° 0,1 mm 8 mps 755 mmHg 87%
    08:00 +11°C° 0,1 mm 7 mps 756 mmHg 86%
    09:00 +11°C° 0,1 mm 7 mps 757 mmHg 84%
    10:00 +11°C° 0,1 mm 7 mps 758 mmHg 82%
    11:00 +13°C° 0,1 mm 6 mps 758 mmHg 80%
    12:00 +13°C° 0,1 mm 6 mps 758 mmHg 77%
    13:00 +13°C° 0,1 mm 6 mps 758 mmHg 74%
    14:00 +13°C° 0,1 mm 5 mps 758 mmHg 71%
    15:00 +12°C° 0 mm 5 mps 759 mmHg 71%
    16:00 +12°C° 0 mm 4 mps 759 mmHg 71%
    17:00 +12°C° 0 mm 4 mps 760 mmHg 71%
    18:00 +11°C° 0 mm 4 mps 760 mmHg 72%
    19:00 +11°C° 0 mm 4 mps 760 mmHg 72%
    20:00 +11°C° 0 mm 3 mps 761 mmHg 73%
    21:00 +11°C° 0,1 mm 3 mps 761 mmHg 73%
    22:00 +11°C° 0,1 mm 4 mps 760 mmHg 74%
    23:00 +10°C° 0,1 mm 4 mps 760 mmHg 75%

    27 Julio, Viernes

    Tiempo Temperatura Precipitaciones Viento Presión Humedad
    00:00 +10°C° 0 mm 4 mps 760 mmHg 75%
    01:00 +10°C° 0 mm 4 mps 760 mmHg 74%
    02:00 +10°C° 0 mm 4 mps 760 mmHg 74%
    03:00 +9°C° 0,1 mm 5 mps 759 mmHg 75%
    04:00 +8°C° 0,1 mm 5 mps 759 mmHg 75%
    05:00 +8°C° 0,1 mm 5 mps 759 mmHg 75%
    06:00 +8°C° 0 mm 6 mps 759 mmHg 76%
    07:00 +8°C° 0 mm 6 mps 759 mmHg 77%
    08:00 +9°C° 0 mm 6 mps 759 mmHg 78%
    09:00 +10°C° 0 mm 7 mps 759 mmHg 74%
    10:00 +12°C° 0 mm 7 mps 759 mmHg 70%
    11:00 +15°C° 0 mm 8 mps 759 mmHg 66%
    12:00 +15°C° 0,6 mm 8 mps 758 mmHg 71%
    13:00 +13°C° 0,6 mm 8 mps 758 mmHg 76%
    14:00 +13°C° 0,6 mm 8 mps 758 mmHg 82%
    15:00 +12°C° 0,2 mm 7 mps 759 mmHg 80%
    16:00 +12°C° 0,2 mm 7 mps 759 mmHg 77%
    17:00 +11°C° 0,2 mm 6 mps 760 mmHg 75%
    18:00 +11°C° 0 mm 6 mps 761 mmHg 76%
    19:00 +10°C° 0 mm 6 mps 761 mmHg 76%
    20:00 +10°C° 0 mm 5 mps 762 mmHg 76%
    21:00 +10°C° 0,1 mm 5 mps 762 mmHg 76%
    22:00 +9°C° 0,1 mm 5 mps 762 mmHg 77%
    23:00 +9°C° 0,1 mm 5 mps 762 mmHg 77%
    Mostrar más